Preview of NWS' New Version of Forecast
This preview is not operational and should not be used for support decisions.

Regional Weather Roundup (RWR)

Issued by National Weather Service (NWS)

                            
000
ASCA42 TJSJ 210810
RWRPR 
PUERTO RICO/U.S. VIRGIN ISLANDS HOURLY WEATHER ROUNDUP
NATIONAL WEATHER SERVICE SAN JUAN PR
400 AM AST WED AUG 21 2019

PRZ001>002-007>008-010-210900-
PUERTO RICO
  
CITY           SKY/WX    TMP DP  RH WIND       PRES   REMARKS
SAN JUAN LMM   PTCLDY    79  73  83 CALM      30.01F                  
CEIBA          PTCLDY    82  75  78 NE8       30.02S                  
$$

VIZ001>002-210900-
U.S. VIRGIN ISLANDS
  
CITY           SKY/WX    TMP DP  RH WIND       PRES   REMARKS
CHARLOTTE AMA  CLEAR     81  73  78 NE6       29.99F                  
CHRISTIANSTED  CLEAR     79  73  83 NE3       30.00F                  
$$

HOURLY WEATHER ROUNDUP FOR THE NEWS MEDIA
  
CITY           SKY/WX    TMP DP  RH WIND       PRES   REMARKS
ORLANDO        FAIR      78  75  90 CALM      30.07F                  
NEW YORK       CLOUDY    77  77 100 SW9       30.01F                  
NEWARK         MOCLDY    77  74  90 SE3       30.00F                  
CHICAGO        FAIR      66  64  93 CALM      29.96F                  
HARTFORD       FAIR      63  61  93 CALM      30.02F                  
BOSTON         FAIR      70  62  76 S7        30.01F                  
DALLAS         CLEAR     85  71  63 S8        29.98F HX  90           
PHILADELPHIA   MOCLDY    76  71  85 SE6       29.98F                  
LOS ANGELES    PTCLDY    69  61  75 S5        29.87S                  
WASHINGTON DC  MOCLDY    70  67  90 S5        30.00F